Tiempo cada hora Allanche

Hoy, 28 Julio, Miércoles

Tiempo Temperatura Precipitaciones Viento Presión Humedad
00:00 +12°C° 2.2 mm 1 mps 669 mmHg 98%
01:00 +12°C° 0.5 mm 1 mps 669 mmHg 98%
02:00 +12°C° 0.5 mm 1 mps 669 mmHg 98%
03:00 +12°C° 0.5 mm 1 mps 668 mmHg 97%
04:00 +12°C° 0 mm 1 mps 669 mmHg 96%
05:00 +13°C° 0 mm 1 mps 669 mmHg 95%
06:00 +13°C° 0 mm 1 mps 669 mmHg 94%
07:00 +14°C° 0 mm 1 mps 669 mmHg 87%
08:00 +15°C° 0 mm 1 mps 670 mmHg 79%
09:00 +16°C° 0 mm 2 mps 670 mmHg 72%
10:00 +18°C° 0 mm 2 mps 670 mmHg 65%
11:00 +19°C° 0 mm 2 mps 670 mmHg 59%
12:00 +21°C° 0 mm 3 mps 671 mmHg 53%
13:00 +21°C° 0 mm 3 mps 671 mmHg 52%
14:00 +21°C° 0 mm 3 mps 671 mmHg 52%
15:00 +22°C° 0 mm 3 mps 671 mmHg 52%
16:00 +20°C° 0 mm 3 mps 671 mmHg 59%
17:00 +19°C° 0 mm 2 mps 670 mmHg 65%
18:00 +18°C° 0 mm 2 mps 670 mmHg 72%
19:00 +16°C° 0 mm 2 mps 670 mmHg 78%
20:00 +14°C° 0 mm 1 mps 670 mmHg 84%
21:00 +12°C° 0 mm 1 mps 670 mmHg 91%
22:00 +12°C° 0 mm 1 mps 670 mmHg 90%
23:00 +12°C° 0 mm 1 mps 669 mmHg 90%

Mañana, 29 Julio, Jueves

Tiempo Temperatura Precipitaciones Viento Presión Humedad
00:00 +11°C° 0 mm 1 mps 669 mmHg 90%
01:00 +11°C° 0 mm 1 mps 669 mmHg 90%
02:00 +11°C° 0 mm 1 mps 669 mmHg 89%
03:00 +11°C° 0 mm 1 mps 669 mmHg 89%
04:00 +12°C° 0 mm 1 mps 669 mmHg 87%
05:00 +12°C° 0 mm 0 mps 669 mmHg 84%
06:00 +13°C° 0 mm 0 mps 669 mmHg 82%
07:00 +15°C° 0 mm 0 mps 670 mmHg 76%
08:00 +19°C° 0 mm 1 mps 670 mmHg 69%
09:00 +21°C° 0 mm 1 mps 670 mmHg 62%
10:00 +22°C° 0.2 mm 1 mps 670 mmHg 61%
11:00 +23°C° 0.2 mm 2 mps 670 mmHg 60%
12:00 +24°C° 0.2 mm 2 mps 670 mmHg 58%
13:00 +24°C° 0.2 mm 2 mps 670 mmHg 60%
14:00 +24°C° 0.2 mm 2 mps 670 mmHg 61%
15:00 +24°C° 0.2 mm 2 mps 670 mmHg 62%
16:00 +23°C° 0.4 mm 2 mps 669 mmHg 69%
17:00 +21°C° 0.4 mm 2 mps 669 mmHg 76%
18:00 +20°C° 0.4 mm 2 mps 669 mmHg 82%
19:00 +19°C° 0.3 mm 1 mps 669 mmHg 87%
20:00 +16°C° 0.3 mm 1 mps 669 mmHg 91%
21:00 +14°C° 0.3 mm 0 mps 668 mmHg 96%
22:00 +13°C° 0.1 mm 0 mps 668 mmHg 96%
23:00 +13°C° 0.1 mm 0 mps 668 mmHg 95%

Pasado mañana, 30 Julio, Viernes

Tiempo Temperatura Precipitaciones Viento Presión Humedad
00:00 +13°C° 0.1 mm 0 mps 668 mmHg 95%
01:00 +13°C° 0 mm 0 mps 668 mmHg 95%
02:00 +13°C° 0 mm 1 mps 668 mmHg 95%
03:00 +13°C° 0 mm 1 mps 667 mmHg 95%
04:00 +14°C° 0 mm 1 mps 667 mmHg 94%
05:00 +13°C° 0 mm 0 mps 667 mmHg 93%
06:00 +14°C° 0 mm 0 mps 668 mmHg 92%
07:00 +18°C° 0 mm 1 mps 668 mmHg 83%
08:00 +20°C° 0 mm 1 mps 668 mmHg 75%
09:00 +22°C° 0 mm 1 mps 669 mmHg 66%
10:00 +23°C° 0 mm 2 mps 669 mmHg 64%
11:00 +22°C° 0 mm 3 mps 669 mmHg 62%
12:00 +24°C° 0 mm 3 mps 669 mmHg 59%
13:00 +22°C° 0.2 mm 3 mps 669 mmHg 63%
14:00 +21°C° 0.2 mm 4 mps 668 mmHg 67%
15:00 +21°C° 0.2 mm 4 mps 668 mmHg 70%
16:00 +20°C° 0 mm 3 mps 668 mmHg 72%
17:00 +19°C° 0 mm 3 mps 668 mmHg 73%
18:00 +18°C° 0 mm 3 mps 668 mmHg 75%
19:00 +16°C° 0 mm 2 mps 668 mmHg 80%
20:00 +14°C° 0 mm 2 mps 668 mmHg 85%
21:00 +13°C° 0 mm 1 mps 668 mmHg 90%
22:00 +12°C° 0 mm 1 mps 668 mmHg 91%
23:00 +12°C° 0 mm 1 mps 668 mmHg 92%

31 Julio, Sábado

Tiempo Temperatura Precipitaciones Viento Presión Humedad
00:00 +12°C° 0 mm 1 mps 668 mmHg 93%
01:00 +12°C° 0 mm 1 mps 668 mmHg 92%
02:00 +12°C° 0 mm 1 mps 668 mmHg 92%
03:00 +12°C° 0 mm 1 mps 668 mmHg 91%
04:00 +12°C° 0 mm 1 mps 668 mmHg 90%
05:00 +12°C° 0 mm 1 mps 668 mmHg 90%
06:00 +12°C° 0 mm 1 mps 668 mmHg 89%
07:00 +13°C° 0 mm 1 mps 668 mmHg 81%
08:00 +15°C° 0 mm 1 mps 668 mmHg 72%
09:00 +16°C° 0 mm 1 mps 669 mmHg 63%
10:00 +18°C° 0 mm 1 mps 669 mmHg 57%
11:00 +18°C° 0 mm 2 mps 669 mmHg 50%
12:00 +19°C° 0 mm 2 mps 669 mmHg 44%
13:00 +19°C° 0 mm 2 mps 669 mmHg 43%
14:00 +19°C° 0 mm 2 mps 669 mmHg 43%
15:00 +19°C° 0 mm 2 mps 668 mmHg 43%
16:00 +18°C° 0 mm 2 mps 668 mmHg 52%
17:00 +17°C° 0 mm 2 mps 668 mmHg 60%
18:00 +15°C° 0 mm 2 mps 668 mmHg 69%
19:00 +14°C° 0 mm 2 mps 668 mmHg 75%
20:00 +12°C° 0 mm 1 mps 668 mmHg 82%
21:00 +11°C° 0 mm 1 mps 668 mmHg 88%
22:00 +10°C° 0 mm 1 mps 667 mmHg 89%
23:00 +10°C° 0 mm 1 mps 667 mmHg 90%

1 Agosto, Domingo

Tiempo Temperatura Precipitaciones Viento Presión Humedad
00:00 +10°C° 0 mm 1 mps 667 mmHg 91%
01:00 +9°C° 0 mm 1 mps 667 mmHg 91%
02:00 +9°C° 0 mm 1 mps 667 mmHg 92%
03:00 +9°C° 0 mm 1 mps 667 mmHg 92%
04:00 +10°C° 0 mm 1 mps 667 mmHg 92%
05:00 +10°C° 0 mm 1 mps 667 mmHg 91%
06:00 +11°C° 0 mm 1 mps 667 mmHg 90%
07:00 +12°C° 0 mm 1 mps 668 mmHg 82%
08:00 +13°C° 0 mm 2 mps 668 mmHg 73%
09:00 +15°C° 0 mm 2 mps 668 mmHg 65%
10:00 +16°C° 0 mm 2 mps 668 mmHg 59%
11:00 +17°C° 0 mm 3 mps 669 mmHg 53%
12:00 +18°C° 0 mm 3 mps 669 mmHg 47%
13:00 +18°C° 0 mm 3 mps 669 mmHg 47%
14:00 +18°C° 0 mm 3 mps 669 mmHg 47%
15:00 +18°C° 0 mm 3 mps 669 mmHg 47%
16:00 +17°C° 0 mm 3 mps 669 mmHg 54%
17:00 +16°C° 0 mm 2 mps 668 mmHg 60%
18:00 +15°C° 0 mm 2 mps 668 mmHg 67%
19:00 +13°C° 0 mm 2 mps 668 mmHg 74%
20:00 +11°C° 0 mm 1 mps 668 mmHg 80%
21:00 +10°C° 0 mm 1 mps 668 mmHg 87%
22:00 +9°C° 0 mm 1 mps 668 mmHg 87%
23:00 +9°C° 0 mm 1 mps 667 mmHg 87%

2 Agosto, Lunes

Tiempo Temperatura Precipitaciones Viento Presión Humedad
00:00 +9°C° 0 mm 1 mps 667 mmHg 87%
01:00 +8°C° 0 mm 1 mps 667 mmHg 87%
02:00 +8°C° 0 mm 1 mps 667 mmHg 86%
03:00 +8°C° 0 mm 1 mps 667 mmHg 86%
04:00 +9°C° 0 mm 1 mps 667 mmHg 84%
05:00 +10°C° 0 mm 1 mps 668 mmHg 82%
06:00 +10°C° 0 mm 0 mps 668 mmHg 80%
07:00 +12°C° 0 mm 0 mps 668 mmHg 70%
08:00 +14°C° 0 mm 0 mps 669 mmHg 60%
09:00 +16°C° 0 mm 0 mps 669 mmHg 50%
10:00 +19°C° 0 mm 1 mps 669 mmHg 47%
11:00 +20°C° 0 mm 1 mps 669 mmHg 44%
12:00 +20°C° 0 mm 2 mps 669 mmHg 41%
13:00 +21°C° 0 mm 2 mps 669 mmHg 41%
14:00 +21°C° 0 mm 2 mps 669 mmHg 42%
15:00 +21°C° 0 mm 2 mps 669 mmHg 42%
16:00 +20°C° 0 mm 2 mps 669 mmHg 50%
17:00 +20°C° 0 mm 1 mps 669 mmHg 59%
18:00 +18°C° 0 mm 1 mps 668 mmHg 68%
19:00 +16°C° 0 mm 1 mps 668 mmHg 72%
20:00 +14°C° 0 mm 1 mps 668 mmHg 76%
21:00 +12°C° 0 mm 1 mps 668 mmHg 80%
22:00 +12°C° 0 mm 1 mps 668 mmHg 80%
23:00 +11°C° 0 mm 1 mps 668 mmHg 81%
Mostrar más

Necesitamos Su Consentimiento

Meteoprog y nuestros Proveedores de Servicios pueden almacenar y acceder a sus datos personales como cookies, identificadores de dispositivo u otras tecnologías similares de su dispositivo y procesar dichos datos para personalizar contenido y anuncios, además de ofrecer funciones de redes sociales y analizar el tráfico.

  • Almacenar y/o acceder a información en su dispositivo

    Se puede almacenar o acceder a cookies, identificadores de dispositivo u otra información de su dispositivo para los fines anteriormente indicados.

  • Anuncios y contenido personalizados, medición de anuncios y contenido, percepciones del público, y desarrollo de productos

    Los anuncios y el contenido pueden personalizarse en base a su perfil. Se pueden añadir más datos para personalizar mejor los anuncios y contenidos. Se puede medir el rendimiento de los anuncios y contenidos. Se puede obtener la percepción sobre el público que ha visto los anuncios y contenidos. Dichos datos pueden usarse para desarrollar o mejorar la experiencia del usuario, sistemas y software.

Al hacer clic en ‘Estoy De Acuerdo’ usted permitirá el uso de las cookies, identificadores de dispositivo, balizas web u otras tecnologías similares indicadas. Su configuración puede cambiarse desde el navegador de su dispositivo.

Para ciertos fines, los intereses legítimos pueden ser considerados por encima del consentimiento. Puede leer más sobre ello en nuestra Política de Privacidad y Cookies.